QPF
0.00 0.00 0.00 0.00 0.00 0.00 0.00 0.00 0.00 0.00 0.00 0.00 0.00 0.00 0.00 0.00 0.00 0.00 0.00 0.00 0.00 0.00 0.00 0.00 0.00 0.00 0.00 0.00 0.00 0.00 0.00 0.00 0.00 0.00 0.00 0.00 0.00 0.00 0.00 0.00 0.00 0.00 0.00 0.00
0.00 0.00 0.00 0.00 0.00 0.00 0.00 0.00 0.00 0.00 0.00 0.00 0.00 0.00 0.00 0.00 0.00 0.00 0.00 0.00 0.00 0.00 0.00 0.00 0.00 0.00 0.00 0.00 0.00 0.00 0.00 0.00 0.00 0.00 0.00 0.00 0.00 0.00 0.00 0.00 0.00 0.00 0.00 0.00
0.00 0.00 0.00 0.00 0.00 0.00 0.00 0.00 0.00 0.00 0.00 0.00 0.00 0.00 0.00 0.00 0.00 0.00 0.00 0.00 0.00 0.00 0.00 0.00 0.00 0.00 0.00 0.00 0.00 0.00 0.00 0.00 0.00 0.00 0.00 0.00 0.00 0.00 0.00 0.00 0.00 0.00 0.00 0.00
0.00 0.00 0.00 0.00 0.00 0.00 0.00 0.00 0.00 0.00 0.00 0.00 0.00 0.00 0.00 0.00 0.00 0.00 0.00 0.00 0.00 0.00 0.00 0.00 0.00 0.00 0.00 0.00 0.00 0.00 0.00 0.00 0.00 0.00 0.00 0.00 0.00 0.00 0.00 0.00 0.00 0.00 0.00 0.00
0.00 0.00 0.00 0.00 0.00 0.00 0.00 0.00 0.00 0.00 0.00 0.00 0.00 0.00 0.00 0.00 0.00 0.00 0.00 0.00 0.00 0.00 0.00 0.00 0.00 0.00 0.00 0.00 0.00 0.00 0.00 0.00 0.00 0.00 0.00 0.00 0.00 0.00 0.00 0.00 0.00 0.00 0.00 0.00
0.00 0.00 0.00 0.00 0.00 0.00 0.00 0.00 0.00 0.00 0.00 0.00 0.00 0.00 0.00 0.00 0.00 0.00 0.00 0.00 0.00 0.00 0.00 0.00 0.00 0.00 0.00 0.00 0.00 0.00 0.00 0.00 0.00 0.00 0.00 0.00 0.00 0.00 0.00 0.00 0.00 0.00 0.00 0.00
0.00 0.00 0.00 0.00 0.00 0.00 0.00 0.00 0.00 0.00 0.00 0.00 0.00 0.00 0.00 0.00 0.00 0.00 0.00 0.00 0.00 0.00 0.00 0.00 0.00 0.00 0.00 0.00 0.00 0.00 0.00 0.00 0.00 0.00 0.00 0.00 0.00 0.00 0.00 0.00 0.00 0.01 0.01 0.00
0.00 0.00 0.00 0.00 0.00 0.00 0.00 0.00 0.00 0.00 0.00 0.00 0.00 0.00 0.00 0.00 0.00 0.00 0.00 0.00 0.00 0.00 0.00 0.00 0.00 0.00 0.00 0.00 0.00 0.00 0.00 0.00 0.00 0.00 0.00 0.00 0.00 0.00 0.00 0.00 0.00 0.00 0.00 0.00
0.00 0.00 0.00 0.00 0.00 0.00 0.00 0.00 0.00 0.00 0.00 0.00 0.00 0.00 0.00 0.00 0.00 0.00 0.00 0.00 0.00 0.00 0.00 0.00 0.00 0.00 0.00 0.00 0.00 0.00 0.00 0.00 0.00 0.00 0.00 0.00 0.00 0.00 0.00 0.00 0.00 0.00 0.00 0.00
0.00 0.00 0.00 0.00 0.00 0.00 0.00 0.00 0.00 0.00 0.00 0.00 0.00 0.00 0.00 0.00 0.00 0.00 0.00 0.00 0.00 0.00 0.00 0.00 0.00 0.00 0.00 0.00 0.00 0.00 0.00 0.00 0.00 0.00 0.00 0.00 0.00 0.00 0.00 0.00 0.00 0.00 0.00 0.00
0.00 0.00 0.00 0.00 0.00 0.00 0.00 0.00 0.00 0.00 0.00 0.00 0.00 0.00 0.00 0.00 0.00 0.00 0.00 0.00 0.00 0.00 0.00 0.00 0.00 0.00 0.00 0.00 0.00 0.00 0.00 0.00 0.00 0.00 0.00 0.00 0.00 0.00 0.00 0.00 0.00 0.00 0.00 0.00
0.00 0.00 0.00 0.00 0.00 0.00 0.00 0.00 0.00 0.00 0.00 0.00 0.00 0.00 0.00 0.00 0.00 0.00 0.00 0.00 0.00 0.00 0.00 0.00 0.00 0.00 0.00 0.00 0.00 0.00 0.00 0.00 0.00 0.00 0.00 0.00 0.00 0.00 0.00 0.00 0.00 0.00 0.00 0.00
0.00 0.00 0.00 0.00 0.00 0.00 0.00 0.00 0.00 0.00 0.00 0.00 0.00 0.00 0.00 0.00 0.00 0.00 0.00 0.00 0.00 0.00 0.00 0.00 0.00 0.00 0.00 0.00 0.00 0.00 0.00 0.00 0.00 0.00 0.00 0.00 0.00 0.00 0.00 0.00 0.00 0.00 0.00 0.00
0.00 0.00 0.00 0.00 0.00 0.00 0.00 0.00 0.00 0.00 0.00 0.00 0.00 0.00 0.00 0.00 0.00 0.00 0.00 0.00 0.00 0.00 0.00 0.00 0.00 0.00 0.00 0.00 0.00 0.00 0.00 0.00 0.00 0.00 0.00 0.00 0.00 0.00 0.00 0.00 0.00 0.00 0.00 0.00
0.00 0.00 0.00 0.00 0.00 0.00 0.00 0.00 0.00 0.00 0.00 0.00 0.00 0.00 0.00 0.00 0.00 0.00 0.00 0.00 0.00 0.00 0.00 0.00 0.00 0.00 0.00 0.00 0.00 0.00 0.00 0.00 0.00 0.00 0.00 0.00 0.00 0.00 0.00 0.00 0.00 0.00 0.00 0.00
0.00 0.00 0.00 0.00 0.00 0.00 0.00 0.00 0.00 0.00 0.00 0.00 0.00 0.00 0.00 0.00 0.00 0.00 0.00 0.00 0.00 0.00 0.00 0.00 0.00 0.00 0.00 0.00 0.00 0.00 0.00 0.00 0.00 0.00 0.00 0.00 0.00 0.00 0.00 0.00 0.00 0.00 0.00 0.00
0.00 0.00 0.00 0.00 0.00 0.00 0.00 0.00 0.00 0.00 0.00 0.00 0.00 0.00 0.00 0.00 0.00 0.00 0.00 0.00 0.00 0.00 0.00 0.00 0.00 0.00 0.00 0.00 0.00 0.00 0.00 0.00 0.00 0.00 0.00 0.00 0.00 0.00 0.00 0.00 0.00 0.00 0.00 0.00
0.00 0.00 0.00 0.00 0.00 0.00 0.00 0.00 0.00 0.00 0.00 0.00 0.00 0.00 0.00 0.00 0.00 0.00 0.00 0.00 0.00 0.00 0.00 0.00 0.00 0.00 0.00 0.00 0.00 0.00 0.00 0.00 0.00 0.00 0.00 0.00 0.00 0.00 0.00 0.00 0.00 0.00 0.00 0.00
0.00 0.00 0.00 0.00 0.00 0.00 0.00 0.00 0.00 0.00 0.00 0.00 0.00 0.00 0.00 0.00 0.00 0.00 0.00 0.00 0.00 0.00 0.00 0.00 0.00 0.00 0.00 0.00 0.00 0.00 0.00 0.00 0.00 0.00 0.00 0.00 0.00 0.00 0.00 0.00 0.00 0.00 0.00 0.00
0.00 0.00 0.00 0.00 0.00 0.00 0.00 0.00 0.00 0.00 0.00 0.00 0.00 0.00 0.00 0.00 0.00 0.00 0.01 0.00 0.00 0.00 0.00 0.00 0.00 0.00 0.00 0.00 0.00 0.00 0.00 0.00 0.00 0.00 0.00 0.00 0.00 0.00 0.00 0.00 0.00 0.00 0.00 0.00
0.00 0.00 0.00 0.00 0.00 0.00 0.00 0.00 0.00 0.00 0.00 0.00 0.00 0.00 0.00 0.00 0.00 0.00 0.00 0.00 0.00 0.00 0.00 0.00 0.00 0.00 0.00 0.00 0.00 0.00 0.00 0.00 0.00 0.00 0.00 0.00 0.00 0.00 0.00 0.00 0.00 0.00 0.00 0.00
0.00 0.00 0.00 0.00 0.00 0.00 0.00 0.00 0.00 0.00 0.00 0.00 0.00 0.00 0.00 0.00 0.00 0.00 0.00 0.00 0.00 0.00 0.00 0.00 0.00 0.00 0.00 0.00 0.00 0.00 0.00 0.00 0.00 0.00 0.00 0.00 0.00 0.00 0.00 0.00 0.00 0.00 0.00 0.00
0.00 0.00 0.00 0.00 0.00 0.00 0.00 0.00 0.00 0.00 0.00 0.00 0.00 0.00 0.00 0.00 0.00 0.00 0.00 0.00 0.00 0.00 0.00 0.00 0.00 0.00 0.00 0.00 0.00 0.00 0.00 0.00 0.00 0.00 0.00 0.00 0.00 0.00 0.00 0.00 0.00 0.00 0.00 0.00
0.00 0.00 0.00 0.00 0.00 0.00 0.00 0.00 0.00 0.00 0.00 0.00 0.00 0.00 0.00 0.00 0.00 0.00 0.00 0.00 0.00 0.00 0.00 0.00 0.00 0.00 0.00 0.00 0.00 0.00 0.00 0.00 0.00 0.00 0.00 0.00 0.00 0.00 0.00 0.00 0.00 0.01 0.01 0.02
0.00 0.00 0.00 0.00 0.00 0.00 0.00 0.00 0.00 0.00 0.00 0.00 0.00 0.00 0.00 0.00 0.00 0.00 0.00 0.00 0.00 0.00 0.00 0.00 0.00 0.00 0.00 0.00 0.00 0.00 0.00 0.00 0.00 0.00 0.00 0.00 0.00 0.00 0.00 0.00 0.00 0.01 0.03 0.06
0.00 0.00 0.00 0.00 0.00 0.00 0.00 0.00 0.00 0.00 0.00 0.00 0.00 0.00 0.00 0.00 0.00 0.00 0.00 0.00 0.00 0.00 0.00 0.00 0.00 0.00 0.00 0.00 0.00 0.00 0.00 0.00 0.00 0.00 0.00 0.00 0.01 0.01 0.01 0.01 0.00 0.01 0.02 0.04
MSLP
1021.74 1022.29 1022.89 1023.53 1024.19 1024.86 1025.56 1026.31 1027.11 1027.97 1028.86 1029.76 1030.62 1031.37 1031.99 1032.41 1032.65 1032.71 1032.65 1032.51 1032.36 1032.26 1032.25 1032.32 1032.45 1032.61 1032.71 1032.70 1032.53 1032.17 1031.61 1030.90 1030.09 1029.23 1028.40 1027.63 1026.95 1026.36 1025.84 1025.34 1024.83 1024.27 1023.65 1022.98
1022.72 1023.23 1023.76 1024.29 1024.80 1025.31 1025.84 1026.41 1027.05 1027.78 1028.58 1029.42 1030.26 1031.03 1031.69 1032.19 1032.51 1032.66 1032.67 1032.61 1032.52 1032.46 1032.48 1032.58 1032.74 1032.92 1033.06 1033.09 1032.97 1032.66 1032.15 1031.47 1030.68 1029.83 1028.98 1028.16 1027.42 1026.74 1026.13 1025.54 1024.95 1024.33 1023.68 1022.99
1023.76 1024.23 1024.67 1025.07 1025.43 1025.76 1026.09 1026.47 1026.92 1027.49 1028.16 1028.91 1029.71 1030.50 1031.22 1031.81 1032.25 1032.52 1032.67 1032.71 1032.72 1032.74 1032.80 1032.94 1033.11 1033.31 1033.46 1033.51 1033.42 1033.14 1032.68 1032.04 1031.27 1030.43 1029.55 1028.69 1027.88 1027.12 1026.41 1025.73 1025.06 1024.38 1023.69 1022.99
1024.82 1025.23 1025.59 1025.86 1026.06 1026.20 1026.33 1026.50 1026.75 1027.13 1027.65 1028.30 1029.05 1029.84 1030.61 1031.31 1031.88 1032.32 1032.63 1032.83 1032.97 1033.08 1033.22 1033.38 1033.57 1033.76 1033.90 1033.95 1033.87 1033.62 1033.18 1032.57 1031.83 1030.99 1030.11 1029.21 1028.34 1027.51 1026.72 1025.97 1025.23 1024.49 1023.76 1023.03
1025.83 1026.19 1026.46 1026.61 1026.66 1026.62 1026.55 1026.51 1026.57 1026.76 1027.13 1027.66 1028.35 1029.13 1029.95 1030.75 1031.47 1032.08 1032.57 1032.95 1033.23 1033.47 1033.67 1033.87 1034.07 1034.24 1034.36 1034.39 1034.29 1034.04 1033.62 1033.04 1032.32 1031.50 1030.61 1029.71 1028.80 1027.92 1027.08 1026.26 1025.47 1024.69 1023.92 1023.16
1026.75 1027.05 1027.23 1027.28 1027.19 1027.00 1026.77 1026.55 1026.43 1026.46 1026.67 1027.10 1027.71 1028.48 1029.34 1030.23 1031.08 1031.85 1032.51 1033.06 1033.50 1033.84 1034.12 1034.36 1034.55 1034.69 1034.77 1034.76 1034.64 1034.38 1033.97 1033.41 1032.72 1031.92 1031.06 1030.16 1029.25 1028.35 1027.47 1026.62 1025.79 1024.98 1024.17 1023.36
1027.51 1027.76 1027.87 1027.83 1027.64 1027.34 1026.98 1026.64 1026.38 1026.28 1026.38 1026.70 1027.25 1027.99 1028.86 1029.81 1030.76 1031.67 1032.47 1033.16 1033.73 1034.18 1034.52 1034.78 1034.96 1035.07 1035.11 1035.05 1034.90 1034.62 1034.21 1033.67 1033.02 1032.26 1031.43 1030.55 1029.66 1028.76 1027.88 1027.01 1026.16 1025.32 1024.47 1023.61
1028.09 1028.29 1028.35 1028.24 1028.00 1027.63 1027.21 1026.79 1026.46 1026.28 1026.30 1026.55 1027.04 1027.73 1028.60 1029.57 1030.58 1031.56 1032.46 1033.25 1033.91 1034.43 1034.82 1035.09 1035.26 1035.34 1035.33 1035.24 1035.05 1034.76 1034.36 1033.84 1033.22 1032.51 1031.72 1030.89 1030.02 1029.14 1028.27 1027.40 1026.53 1025.66 1024.78 1023.88
1028.50 1028.65 1028.66 1028.53 1028.26 1027.89 1027.46 1027.03 1026.68 1026.48 1026.46 1026.67 1027.11 1027.75 1028.59 1029.54 1030.55 1031.56 1032.50 1033.34 1034.04 1034.60 1035.01 1035.29 1035.44 1035.50 1035.46 1035.34 1035.13 1034.83 1034.44 1033.95 1033.37 1032.70 1031.95 1031.16 1030.32 1029.47 1028.60 1027.73 1026.86 1025.97 1025.06 1024.11
1028.76 1028.87 1028.86 1028.72 1028.46 1028.12 1027.73 1027.35 1027.04 1026.86 1026.85 1027.04 1027.44 1028.04 1028.81 1029.71 1030.68 1031.66 1032.59 1033.43 1034.14 1034.71 1035.12 1035.40 1035.55 1035.59 1035.53 1035.39 1035.18 1034.88 1034.50 1034.03 1033.48 1032.85 1032.14 1031.38 1030.57 1029.73 1028.87 1027.99 1027.11 1026.20 1025.27 1024.29
1028.95 1029.02 1028.99 1028.85 1028.63 1028.35 1028.03 1027.74 1027.51 1027.39 1027.41 1027.60 1027.98 1028.53 1029.24 1030.06 1030.96 1031.87 1032.75 1033.55 1034.24 1034.79 1035.21 1035.48 1035.63 1035.67 1035.61 1035.47 1035.25 1034.96 1034.59 1034.14 1033.61 1033.00 1032.32 1031.57 1030.77 1029.93 1029.06 1028.18 1027.27 1026.35 1025.40 1024.40
1029.13 1029.17 1029.12 1028.99 1028.81 1028.59 1028.36 1028.16 1028.02 1027.98 1028.05 1028.27 1028.63 1029.14 1029.78 1030.52 1031.33 1032.16 1032.97 1033.71 1034.37 1034.91 1035.32 1035.60 1035.75 1035.80 1035.75 1035.62 1035.41 1035.12 1034.75 1034.31 1033.78 1033.18 1032.49 1031.74 1030.93 1030.08 1029.20 1028.30 1027.38 1026.44 1025.47 1024.46
1029.38 1029.37 1029.30 1029.18 1029.02 1028.85 1028.69 1028.58 1028.53 1028.56 1028.69 1028.93 1029.29 1029.77 1030.35 1031.02 1031.75 1032.50 1033.25 1033.95 1034.57 1035.10 1035.51 1035.80 1035.98 1036.04 1036.00 1035.87 1035.66 1035.37 1034.99 1034.53 1033.99 1033.37 1032.67 1031.90 1031.07 1030.21 1029.31 1028.38 1027.44 1026.49 1025.51 1024.50
1029.70 1029.66 1029.55 1029.42 1029.27 1029.12 1029.02 1028.96 1028.97 1029.06 1029.24 1029.51 1029.87 1030.34 1030.88 1031.51 1032.18 1032.89 1033.59 1034.26 1034.87 1035.39 1035.82 1036.12 1036.32 1036.39 1036.36 1036.23 1036.00 1035.69 1035.28 1034.79 1034.22 1033.56 1032.83 1032.04 1031.19 1030.31 1029.39 1028.45 1027.50 1026.54 1025.55 1024.55
1030.08 1030.00 1029.86 1029.69 1029.53 1029.39 1029.30 1029.27 1029.32 1029.44 1029.66 1029.95 1030.34 1030.80 1031.35 1031.95 1032.61 1033.30 1033.99 1034.65 1035.27 1035.80 1036.24 1036.56 1036.76 1036.84 1036.80 1036.65 1036.39 1036.03 1035.57 1035.03 1034.41 1033.71 1032.95 1032.13 1031.27 1030.38 1029.45 1028.51 1027.56 1026.59 1025.61 1024.61
1030.44 1030.33 1030.15 1029.95 1029.76 1029.60 1029.50 1029.48 1029.54 1029.69 1029.93 1030.26 1030.67 1031.17 1031.73 1032.36 1033.03 1033.73 1034.44 1035.12 1035.75 1036.30 1036.74 1037.07 1037.27 1037.33 1037.26 1037.06 1036.74 1036.32 1035.79 1035.19 1034.51 1033.77 1032.98 1032.15 1031.28 1030.39 1029.49 1028.56 1027.62 1026.67 1025.69 1024.69
1030.70 1030.56 1030.36 1030.14 1029.91 1029.73 1029.61 1029.58 1029.64 1029.81 1030.08 1030.45 1030.91 1031.45 1032.07 1032.74 1033.46 1034.20 1034.94 1035.64 1036.29 1036.84 1037.29 1037.60 1037.77 1037.78 1037.66 1037.39 1037.00 1036.49 1035.90 1035.22 1034.49 1033.71 1032.89 1032.06 1031.20 1030.34 1029.46 1028.57 1027.66 1026.73 1025.77 1024.77
1030.76 1030.62 1030.41 1030.17 1029.94 1029.74 1029.61 1029.58 1029.66 1029.85 1030.16 1030.59 1031.11 1031.72 1032.41 1033.15 1033.93 1034.71 1035.48 1036.21 1036.86 1037.40 1037.82 1038.09 1038.20 1038.15 1037.94 1037.59 1037.11 1036.52 1035.84 1035.09 1034.31 1033.49 1032.67 1031.84 1031.01 1030.19 1029.36 1028.52 1027.66 1026.76 1025.83 1024.85
1030.57 1030.45 1030.26 1030.03 1029.81 1029.63 1029.52 1029.51 1029.63 1029.87 1030.25 1030.74 1031.35 1032.04 1032.81 1033.62 1034.46 1035.28 1036.07 1036.79 1037.42 1037.92 1038.28 1038.48 1038.51 1038.37 1038.07 1037.63 1037.05 1036.38 1035.63 1034.82 1033.99 1033.15 1032.33 1031.51 1030.72 1029.94 1029.17 1028.39 1027.58 1026.74 1025.84 1024.89
1030.15 1030.06 1029.91 1029.73 1029.55 1029.42 1029.37 1029.43 1029.61 1029.94 1030.40 1030.99 1031.69 1032.47 1033.32 1034.19 1035.07 1035.91 1036.69 1037.37 1037.95 1038.38 1038.65 1038.75 1038.69 1038.45 1038.06 1037.52 1036.87 1036.12 1035.31 1034.46 1033.59 1032.74 1031.91 1031.12 1030.35 1029.62 1028.90 1028.18 1027.43 1026.65 1025.81 1024.91
1029.55 1029.51 1029.42 1029.31 1029.21 1029.17 1029.21 1029.37 1029.67 1030.10 1030.68 1031.38 1032.17 1033.05 1033.96 1034.87 1035.76 1036.59 1037.32 1037.94 1038.42 1038.75 1038.92 1038.91 1038.74 1038.41 1037.93 1037.31 1036.60 1035.80 1034.94 1034.06 1033.18 1032.32 1031.49 1030.70 1029.96 1029.26 1028.58 1027.91 1027.22 1026.50 1025.72 1024.89
1028.89 1028.90 1028.88 1028.85 1028.87 1028.94 1029.11 1029.40 1029.83 1030.40 1031.11 1031.92 1032.81 1033.76 1034.72 1035.65 1036.52 1037.29 1037.95 1038.47 1038.84 1039.05 1039.09 1038.97 1038.70 1038.28 1037.73 1037.07 1036.31 1035.48 1034.61 1033.72 1032.83 1031.95 1031.12 1030.33 1029.60 1028.91 1028.25 1027.61 1026.97 1026.31 1025.61 1024.86
1028.27 1028.32 1028.37 1028.45 1028.58 1028.79 1029.11 1029.55 1030.13 1030.85 1031.68 1032.60 1033.59 1034.59 1035.56 1036.48 1037.31 1038.00 1038.56 1038.96 1039.20 1039.28 1039.20 1038.97 1038.61 1038.12 1037.52 1036.83 1036.07 1035.24 1034.37 1033.47 1032.58 1031.70 1030.86 1030.06 1029.31 1028.61 1027.95 1027.33 1026.72 1026.11 1025.48 1024.82
1027.78 1027.86 1027.97 1028.15 1028.40 1028.75 1029.23 1029.83 1030.56 1031.42 1032.37 1033.39 1034.44 1035.47 1036.44 1037.32 1038.08 1038.68 1039.12 1039.39 1039.50 1039.45 1039.26 1038.94 1038.51 1037.97 1037.35 1036.66 1035.90 1035.09 1034.24 1033.36 1032.47 1031.59 1030.73 1029.91 1029.13 1028.41 1027.74 1027.11 1026.52 1025.95 1025.38 1024.81
1027.45 1027.55 1027.72 1027.99 1028.36 1028.85 1029.47 1030.22 1031.10 1032.07 1033.13 1034.22 1035.30 1036.34 1037.29 1038.11 1038.79 1039.28 1039.61 1039.76 1039.75 1039.59 1039.30 1038.91 1038.42 1037.86 1037.24 1036.56 1035.82 1035.04 1034.22 1033.37 1032.49 1031.61 1030.74 1029.89 1029.08 1028.32 1027.63 1026.99 1026.40 1025.85 1025.34 1024.84
1027.26 1027.38 1027.60 1027.95 1028.43 1029.05 1029.80 1030.68 1031.67 1032.75 1033.87 1035.01 1036.11 1037.13 1038.04 1038.80 1039.38 1039.79 1040.00 1040.05 1039.94 1039.70 1039.34 1038.89 1038.38 1037.81 1037.19 1036.53 1035.82 1035.08 1034.29 1033.46 1032.60 1031.73 1030.85 1029.98 1029.15 1028.36 1027.64 1026.98 1026.39 1025.85 1025.37 1024.93
Thickness
5694 5689 5672 5665 5664 5667 5667 5659 5642 5621 5607 5602 5593 5579 5568 5559 5556 5549 5541 5532 5522 5511 5499 5485 5472 5460 5448 5438 5428 5418 5410 5402 5397 5394 5392 5392 5390 5388 5387 5384 5382 5383 5385 5390
5689 5668 5659 5660 5659 5661 5659 5650 5631 5608 5599 5596 5583 5574 5565 5555 5546 5536 5527 5518 5508 5496 5484 5470 5455 5442 5429 5416 5404 5394 5385 5380 5375 5371 5370 5370 5372 5373 5372 5370 5368 5367 5367 5368
5673 5657 5656 5657 5658 5656 5651 5648 5636 5618 5594 5587 5579 5572 5562 5549 5538 5527 5518 5506 5495 5480 5468 5453 5438 5424 5409 5395 5382 5372 5365 5362 5359 5356 5356 5356 5358 5359 5358 5357 5355 5353 5351 5351
5662 5654 5652 5653 5647 5647 5645 5633 5628 5613 5606 5603 5584 5603 5575 5548 5532 5521 5510 5497 5482 5466 5451 5435 5419 5404 5389 5374 5362 5354 5349 5347 5344 5342 5341 5342 5343 5344 5342 5340 5340 5339 5338 5337
5653 5648 5647 5645 5638 5635 5634 5623 5620 5612 5611 5604 5587 5583 5587 5542 5528 5515 5499 5484 5468 5452 5435 5418 5401 5384 5368 5356 5347 5340 5336 5333 5330 5327 5326 5326 5326 5325 5325 5325 5326 5326 5326 5324
5648 5643 5639 5636 5633 5627 5623 5619 5613 5608 5607 5607 5600 5582 5589 5544 5525 5504 5487 5472 5456 5438 5420 5402 5384 5367 5352 5342 5334 5328 5324 5320 5316 5313 5311 5309 5309 5308 5309 5309 5310 5311 5312 5313
5646 5640 5635 5631 5633 5631 5627 5627 5629 5624 5617 5615 5582 5576 5569 5528 5506 5487 5471 5458 5443 5425 5406 5387 5369 5353 5340 5331 5323 5316 5311 5306 5301 5297 5294 5291 5290 5288 5288 5289 5290 5293 5297 5299
5649 5642 5629 5625 5621 5619 5617 5619 5616 5608 5616 5613 5580 5574 5547 5514 5493 5476 5461 5446 5430 5411 5390 5371 5354 5339 5329 5320 5312 5304 5298 5292 5286 5280 5276 5272 5270 5268 5267 5266 5268 5272 5276 5281
5642 5635 5622 5616 5612 5611 5613 5607 5596 5596 5593 5581 5588 5561 5519 5499 5484 5469 5454 5436 5417 5395 5374 5357 5342 5328 5317 5308 5299 5290 5283 5276 5269 5264 5259 5256 5252 5250 5248 5248 5249 5251 5255 5261
5624 5627 5620 5613 5610 5602 5601 5595 5591 5590 5585 5586 5592 5567 5543 5495 5476 5459 5443 5424 5404 5381 5361 5346 5332 5318 5305 5295 5285 5277 5269 5262 5256 5251 5246 5242 5238 5235 5233 5232 5233 5234 5237 5242
5614 5619 5619 5611 5608 5603 5595 5587 5583 5579 5572 5568 5567 5563 5515 5486 5462 5445 5430 5410 5387 5367 5350 5336 5321 5307 5294 5283 5274 5266 5259 5253 5247 5242 5237 5232 5228 5224 5221 5219 5218 5219 5221 5225
5605 5612 5619 5609 5592 5584 5585 5583 5578 5574 5569 5553 5547 5539 5493 5471 5452 5435 5418 5397 5375 5357 5341 5326 5312 5297 5284 5274 5265 5257 5250 5244 5238 5232 5227 5223 5218 5214 5210 5207 5205 5205 5206 5209
5602 5606 5621 5619 5599 5584 5579 5569 5562 5555 5549 5543 5534 5530 5478 5461 5446 5429 5409 5387 5367 5350 5333 5318 5303 5289 5276 5266 5257 5250 5243 5236 5229 5223 5218 5213 5208 5203 5198 5195 5192 5192 5193 5195
5596 5601 5607 5612 5604 5584 5574 5562 5552 5546 5544 5541 5529 5518 5483 5461 5439 5421 5400 5376 5359 5342 5325 5309 5294 5281 5269 5259 5251 5243 5235 5228 5221 5214 5208 5202 5196 5191 5186 5182 5180 5179 5180 5182
5593 5598 5594 5588 5572 5566 5565 5560 5549 5538 5535 5526 5520 5492 5476 5449 5428 5411 5390 5366 5349 5332 5316 5300 5286 5274 5263 5254 5245 5236 5228 5219 5212 5205 5199 5193 5187 5181 5176 5172 5170 5168 5168 5170
5587 5588 5582 5585 5565 5558 5556 5555 5542 5530 5518 5508 5494 5482 5459 5439 5422 5405 5381 5355 5338 5322 5307 5291 5278 5267 5257 5248 5239 5229 5220 5212 5204 5197 5191 5186 5180 5174 5169 5165 5161 5159 5158 5159
5582 5581 5582 5590 5566 5562 5572 5560 5540 5528 5514 5500 5488 5474 5448 5432 5414 5393 5366 5343 5328 5313 5297 5282 5270 5260 5250 5241 5231 5222 5214 5206 5198 5191 5185 5179 5174 5169 5164 5160 5155 5151 5149 5149
5576 5574 5569 5571 5572 5566 5572 5537 5532 5520 5507 5489 5474 5458 5439 5420 5400 5375 5350 5334 5319 5303 5287 5275 5264 5254 5245 5235 5225 5216 5207 5200 5193 5186 5181 5176 5170 5165 5160 5155 5150 5144 5140 5139
5563 5567 5562 5557 5572 5582 5552 5530 5518 5509 5503 5481 5465 5449 5432 5411 5396 5374 5341 5323 5308 5293 5280 5268 5258 5250 5241 5231 5222 5213 5205 5198 5190 5184 5179 5174 5168 5162 5155 5149 5144 5137 5132 5130
5549 5553 5559 5545 5557 5571 5563 5527 5512 5501 5498 5475 5458 5442 5423 5402 5395 5373 5333 5317 5301 5286 5274 5263 5255 5247 5238 5230 5220 5211 5204 5197 5190 5184 5178 5171 5164 5157 5149 5142 5134 5126 5120 5118
5553 5549 5547 5548 5550 5572 5539 5515 5503 5505 5503 5468 5451 5433 5412 5392 5373 5348 5327 5311 5295 5282 5270 5260 5252 5244 5237 5227 5217 5210 5204 5197 5190 5182 5176 5169 5161 5152 5144 5134 5123 5114 5107 5104
5573 5564 5554 5545 5543 5555 5523 5509 5509 5506 5478 5461 5442 5422 5400 5381 5360 5340 5322 5305 5290 5278 5268 5258 5250 5243 5234 5225 5218 5212 5205 5197 5188 5181 5175 5167 5159 5150 5141 5130 5117 5105 5095 5092
5571 5573 5572 5562 5567 5541 5526 5518 5503 5487 5472 5453 5432 5409 5389 5370 5352 5332 5315 5301 5287 5276 5266 5256 5247 5240 5234 5227 5220 5213 5206 5196 5188 5181 5174 5167 5158 5149 5139 5127 5112 5099 5087 5083
5566 5546 5551 5551 5551 5533 5518 5504 5490 5478 5462 5440 5419 5397 5379 5361 5342 5325 5310 5297 5284 5274 5264 5254 5247 5241 5235 5230 5222 5213 5204 5196 5188 5182 5176 5168 5160 5151 5140 5126 5110 5094 5083 5079
5579 5547 5547 5550 5541 5522 5511 5500 5484 5464 5445 5426 5406 5388 5371 5353 5335 5319 5305 5292 5280 5270 5261 5253 5245 5239 5237 5231 5223 5214 5206 5198 5191 5185 5178 5171 5163 5154 5142 5127 5110 5095 5082 5075
5566 5560 5560 5568 5552 5534 5519 5499 5477 5456 5437 5417 5397 5379 5362 5346 5329 5314 5300 5287 5275 5266 5259 5251 5246 5242 5237 5231 5223 5215 5208 5200 5194 5188 5181 5174 5166 5156 5144 5131 5116 5100 5087 5079